• Em Portugal
  • Lista de países
  • Para 7 dias
  • Temperatura da água
  • Mapas de satélite
  • Mapa do tempo
  • Widgets de tempo
  • user-avatar
    Iniciar Sessão

    Previsão horária em Osieczow

    Hoje, 24 Setembro, Segunda-feira

    Tempo Temperatura Precipitação Vento Pressão Humidade
    00:00 +8°C° 0.9 mm 7 m/s 739 mmHg 90%
    01:00 +7°C° 0 mm 6 m/s 741 mmHg 87%
    02:00 +7°C° 0.1 mm 6 m/s 742 mmHg 87%
    03:00 +6°C° 0.1 mm 7 m/s 743 mmHg 87%
    04:00 +6°C° 0.1 mm 7 m/s 744 mmHg 86%
    05:00 +6°C° 0 mm 7 m/s 745 mmHg 86%
    06:00 +6°C° 0 mm 8 m/s 746 mmHg 85%
    07:00 +7°C° 0 mm 6 m/s 746 mmHg 84%
    08:00 +6°C° 0.1 mm 7 m/s 747 mmHg 80%
    09:00 +7°C° 0.1 mm 8 m/s 747 mmHg 76%
    10:00 +7°C° 0.1 mm 8 m/s 748 mmHg 72%
    11:00 +9°C° 0.2 mm 8 m/s 748 mmHg 68%
    12:00 +10°C° 0.2 mm 8 m/s 749 mmHg 64%
    13:00 +10°C° 0.2 mm 8 m/s 749 mmHg 59%
    14:00 +10°C° 0.2 mm 8 m/s 749 mmHg 59%
    15:00 +10°C° 0.2 mm 8 m/s 750 mmHg 58%
    16:00 +10°C° 0.2 mm 7 m/s 750 mmHg 57%
    17:00 +9°C° 0.2 mm 6 m/s 750 mmHg 63%
    18:00 +8°C° 0.2 mm 5 m/s 751 mmHg 68%
    19:00 +7°C° 0.2 mm 5 m/s 751 mmHg 73%
    20:00 +7°C° 0.2 mm 4 m/s 752 mmHg 75%
    21:00 +6°C° 0.2 mm 4 m/s 752 mmHg 76%
    22:00 +6°C° 0.2 mm 4 m/s 753 mmHg 77%
    23:00 +5°C° 0 mm 4 m/s 753 mmHg 79%

    Amanhã, 25 Setembro, Terça-feira

    Tempo Temperatura Precipitação Vento Pressão Humidade
    00:00 +5°C° 0 mm 4 m/s 754 mmHg 80%
    01:00 +4°C° 0 mm 4 m/s 754 mmHg 81%
    02:00 +4°C° 0 mm 4 m/s 755 mmHg 82%
    03:00 +4°C° 0 mm 4 m/s 755 mmHg 83%
    04:00 +3°C° 0 mm 4 m/s 755 mmHg 84%
    05:00 +4°C° 0 mm 4 m/s 756 mmHg 84%
    06:00 +4°C° 0 mm 4 m/s 756 mmHg 83%
    07:00 +4°C° 0 mm 4 m/s 757 mmHg 83%
    08:00 +5°C° 0 mm 4 m/s 758 mmHg 77%
    09:00 +7°C° 0 mm 4 m/s 758 mmHg 70%
    10:00 +10°C° 0 mm 4 m/s 759 mmHg 63%
    11:00 +11°C° 0.1 mm 4 m/s 759 mmHg 58%
    12:00 +12°C° 0.1 mm 4 m/s 759 mmHg 53%
    13:00 +13°C° 0.1 mm 3 m/s 759 mmHg 47%
    14:00 +13°C° 0 mm 3 m/s 759 mmHg 48%
    15:00 +12°C° 0 mm 3 m/s 759 mmHg 48%
    16:00 +12°C° 0 mm 3 m/s 759 mmHg 48%
    17:00 +12°C° 0 mm 2 m/s 759 mmHg 53%
    18:00 +10°C° 0 mm 2 m/s 759 mmHg 58%
    19:00 +9°C° 0 mm 1 m/s 760 mmHg 63%
    20:00 +9°C° 0 mm 1 m/s 760 mmHg 64%
    21:00 +8°C° 0 mm 1 m/s 760 mmHg 66%
    22:00 +8°C° 0 mm 1 m/s 760 mmHg 68%
    23:00 +7°C° 0 mm 1 m/s 760 mmHg 69%

    Depois de amanhã, 26 Setembro, Quarta-feira

    Tempo Temperatura Precipitação Vento Pressão Humidade
    00:00 +6°C° 0 mm 2 m/s 760 mmHg 70%
    01:00 +6°C° 0 mm 2 m/s 760 mmHg 71%
    02:00 +5°C° 0 mm 2 m/s 760 mmHg 71%
    03:00 +5°C° 0 mm 2 m/s 760 mmHg 72%
    04:00 +5°C° 0 mm 2 m/s 760 mmHg 72%
    05:00 +5°C° 0 mm 2 m/s 760 mmHg 72%
    06:00 +6°C° 0 mm 2 m/s 759 mmHg 71%
    07:00 +6°C° 0 mm 2 m/s 759 mmHg 70%
    08:00 +8°C° 0 mm 3 m/s 759 mmHg 62%
    09:00 +10°C° 0 mm 3 m/s 759 mmHg 55%
    10:00 +12°C° 0 mm 4 m/s 759 mmHg 48%
    11:00 +13°C° 0 mm 4 m/s 758 mmHg 45%
    12:00 +14°C° 0 mm 4 m/s 758 mmHg 42%
    13:00 +15°C° 0 mm 4 m/s 757 mmHg 40%
    14:00 +15°C° 0 mm 4 m/s 757 mmHg 41%
    15:00 +15°C° 0 mm 4 m/s 756 mmHg 42%
    16:00 +15°C° 0 mm 4 m/s 756 mmHg 44%
    17:00 +13°C° 0 mm 3 m/s 756 mmHg 48%
    18:00 +12°C° 0 mm 3 m/s 756 mmHg 52%
    19:00 +11°C° 0 mm 3 m/s 756 mmHg 56%
    20:00 +11°C° 0 mm 3 m/s 756 mmHg 55%
    21:00 +10°C° 0 mm 3 m/s 756 mmHg 54%
    22:00 +10°C° 0 mm 3 m/s 756 mmHg 53%
    23:00 +10°C° 0 mm 4 m/s 755 mmHg 53%

    27 Setembro, Quinta-feira

    Tempo Temperatura Precipitação Vento Pressão Humidade
    00:00 +10°C° 0 mm 4 m/s 755 mmHg 54%
    01:00 +10°C° 0 mm 4 m/s 755 mmHg 54%
    02:00 +10°C° 0 mm 4 m/s 755 mmHg 55%
    03:00 +10°C° 0 mm 4 m/s 755 mmHg 56%
    04:00 +10°C° 0 mm 4 m/s 754 mmHg 56%
    05:00 +10°C° 0 mm 4 m/s 754 mmHg 56%
    06:00 +10°C° 0 mm 4 m/s 754 mmHg 56%
    07:00 +11°C° 0 mm 4 m/s 754 mmHg 55%
    08:00 +13°C° 0 mm 4 m/s 754 mmHg 52%
    09:00 +15°C° 0 mm 4 m/s 754 mmHg 49%
    10:00 +18°C° 0 mm 4 m/s 754 mmHg 46%
    11:00 +19°C° 0 mm 4 m/s 754 mmHg 47%
    12:00 +20°C° 0 mm 4 m/s 754 mmHg 47%
    13:00 +21°C° 0 mm 4 m/s 753 mmHg 47%
    14:00 +21°C° 0 mm 4 m/s 753 mmHg 49%
    15:00 +21°C° 0 mm 4 m/s 752 mmHg 50%
    16:00 +21°C° 0 mm 3 m/s 752 mmHg 52%
    17:00 +19°C° 0 mm 3 m/s 752 mmHg 57%
    18:00 +18°C° 0 mm 2 m/s 752 mmHg 61%
    19:00 +16°C° 0 mm 2 m/s 751 mmHg 66%
    20:00 +15°C° 0 mm 2 m/s 751 mmHg 66%
    21:00 +15°C° 0 mm 2 m/s 751 mmHg 65%
    22:00 +14°C° 0 mm 2 m/s 751 mmHg 64%
    23:00 +14°C° 0 mm 2 m/s 750 mmHg 64%

    28 Setembro, Sexta-feira

    Tempo Temperatura Precipitação Vento Pressão Humidade
    00:00 +14°C° 0 mm 2 m/s 750 mmHg 63%
    01:00 +13°C° 0 mm 2 m/s 750 mmHg 62%
    02:00 +13°C° 0 mm 2 m/s 749 mmHg 63%
    03:00 +12°C° 0 mm 2 m/s 749 mmHg 64%
    04:00 +12°C° 0 mm 2 m/s 749 mmHg 64%
    05:00 +12°C° 0 mm 2 m/s 749 mmHg 65%
    06:00 +12°C° 0 mm 2 m/s 748 mmHg 65%
    07:00 +12°C° 0 mm 2 m/s 748 mmHg 66%
    08:00 +13°C° 0 mm 3 m/s 748 mmHg 61%
    09:00 +16°C° 0 mm 3 m/s 748 mmHg 56%
    10:00 +18°C° 0 mm 3 m/s 749 mmHg 51%
    11:00 +19°C° 0 mm 3 m/s 748 mmHg 50%
    12:00 +20°C° 0 mm 3 m/s 748 mmHg 48%
    13:00 +21°C° 0 mm 3 m/s 748 mmHg 47%
    14:00 +20°C° 0 mm 3 m/s 748 mmHg 49%
    15:00 +20°C° 0 mm 3 m/s 748 mmHg 51%
    16:00 +20°C° 0 mm 3 m/s 747 mmHg 54%
    17:00 +18°C° 0 mm 2 m/s 747 mmHg 60%
    18:00 +16°C° 0 mm 2 m/s 747 mmHg 67%
    19:00 +15°C° 0 mm 2 m/s 748 mmHg 74%
    20:00 +14°C° 0 mm 2 m/s 748 mmHg 76%
    21:00 +14°C° 0 mm 2 m/s 748 mmHg 78%
    22:00 +13°C° 0 mm 2 m/s 748 mmHg 79%
    23:00 +13°C° 0.1 mm 2 m/s 748 mmHg 82%

    29 Setembro, Sábado

    Tempo Temperatura Precipitação Vento Pressão Humidade
    00:00 +12°C° 0.1 mm 2 m/s 749 mmHg 84%
    01:00 +12°C° 0.1 mm 1 m/s 749 mmHg 86%
    02:00 +10°C° 0 mm 2 m/s 749 mmHg 87%
    03:00 +10°C° 0 mm 2 m/s 749 mmHg 88%
    04:00 +9°C° 0 mm 2 m/s 749 mmHg 90%
    05:00 +9°C° 0 mm 2 m/s 750 mmHg 89%
    06:00 +9°C° 0 mm 2 m/s 750 mmHg 89%
    07:00 +8°C° 0 mm 2 m/s 751 mmHg 89%
    08:00 +10°C° 0 mm 2 m/s 751 mmHg 80%
    09:00 +12°C° 0 mm 2 m/s 751 mmHg 71%
    10:00 +12°C° 0 mm 3 m/s 752 mmHg 62%
    11:00 +14°C° 0 mm 2 m/s 752 mmHg 56%
    12:00 +15°C° 0 mm 2 m/s 752 mmHg 51%
    13:00 +16°C° 0 mm 2 m/s 752 mmHg 45%
    14:00 +15°C° 0 mm 2 m/s 752 mmHg 46%
    15:00 +15°C° 0 mm 2 m/s 752 mmHg 46%
    16:00 +15°C° 0 mm 2 m/s 751 mmHg 46%
    17:00 +13°C° 0 mm 2 m/s 752 mmHg 52%
    18:00 +12°C° 0 mm 2 m/s 752 mmHg 57%
    19:00 +9°C° 0 mm 2 m/s 752 mmHg 63%
    20:00 +9°C° 0 mm 2 m/s 752 mmHg 65%
    21:00 +8°C° 0 mm 2 m/s 752 mmHg 67%
    22:00 +8°C° 0 mm 2 m/s 752 mmHg 69%
    23:00 +7°C° 0 mm 2 m/s 752 mmHg 70%
    Mostrar mais